Palmer, AK

3:34 AM AKDT on May 23, 2017 (GMT -0800)
Palmer Municipal

Weather History for PAAQ - February, 2012

Change the Weather History Date:

Tuesday, February 14, 2012

  Actual Average Record
Temperature  
Mean Temperature 30 °F -  
Max Temperature 33 °F 26 °F 46 °F (1970)
Min Temperature 27 °F 9 °F -18 °F (1967)
Degree Days  
Heating Degree Days 34    
Moisture  
Dew Point 26 °F    
Average Humidity 83    
Maximum Humidity 96    
Minimum Humidity 66    
Precipitation  
Precipitation 0.07 in - - ()
Sea Level Pressure  
Sea Level Pressure 29.70 in    
Wind  
Wind Speed 8 mph (NNW)    
Max Wind Speed 15 mph    
Max Gust Speed 23 mph    
Visibility 7 miles    
Events Snow    
Averages and records for this station are not official NWS values.
T = Trace of Precipitation, MM = Missing Value Source: NWS Daily Summary

Daily Weather History Graph

Daily Weather History Graph

Search for Another Location

Airport or City:

Trip Planner

Search our weather history database for the weather conditions in past years. The results will help you decide how hot, cold, wet, or windy it might be!

Date:

Astronomy

Feb. 14, 2012 Rise Set
Actual Time 8:44 AM AKST 5:38 PM AKST
Civil Twilight 7:57 AM AKST 6:24 PM AKST
Nautical Twilight 7:06 AM AKST 7:16 PM AKST
Astronomical Twilight 6:15 AM AKST 8:06 PM AKST
Moon 3:31 AM AKST (2/14) 9:56 AM AKST (2/14)
Length of Visible Light 10h 27m
Length of Day
8h 54m
Waning Gibbous, 48% of the Moon is Illuminated
Feb 14
Waning Gibbous
Feb 21
New
Feb 29
First Quarter
Mar 8
Full
Mar 14
Last Quarter

Hourly Weather History & Observations

Time (AKST) Temp. Windchill Dew Point Humidity Pressure Visibility Wind Dir Wind Speed Gust Speed Precip Events Conditions
12:29 AM 33.8 °F 27.7 °F 30.2 °F 87% 29.49 in 0.8 mi WNW 6.9 mph - 0.02 in Snow Light Snow
12:37 AM 33.8 °F 28.6 °F 30.2 °F 87% 29.50 in 1.0 mi Variable 5.8 mph - 0.03 in Snow Light Snow
12:53 AM 32.0 °F 24.8 °F 30.9 °F 96% 29.50 in 1.0 mi WNW 8.1 mph - 0.04 in Snow Light Snow
1:42 AM 32.0 °F 23.0 °F 30.2 °F 93% 29.54 in 1.5 mi West 11.5 mph 23.0 mph 0.02 in Snow Light Snow
1:53 AM 32.0 °F 24.2 °F 30.0 °F 92% 29.53 in 1.8 mi WNW 9.2 mph - 0.02 in Snow Light Snow
2:08 AM 32.0 °F 22.5 °F 28.4 °F 87% 29.55 in 2.5 mi West 12.7 mph - 0.00 in Snow Light Snow
2:18 AM 32.0 °F 23.6 °F 28.4 °F 87% 29.56 in 1.8 mi West 10.4 mph 20.7 mph 0.00 in Snow Light Snow
2:37 AM 30.2 °F 19.3 °F 28.4 °F 93% 29.57 in 1.0 mi WNW 15.0 mph 21.9 mph 0.00 in Snow Light Snow
2:53 AM 30.9 °F 21.2 °F 28.0 °F 89% 29.57 in 1.2 mi West 12.7 mph 19.6 mph 0.00 in Snow Light Snow
3:08 AM 30.2 °F 21.3 °F 28.4 °F 93% 29.59 in 1.2 mi West 10.4 mph - 0.01 in Snow Light Snow
3:36 AM 30.2 °F 23.4 °F 28.4 °F 93% 29.60 in 2.5 mi NNW 6.9 mph - 0.01 in Snow Light Snow
3:53 AM 30.9 °F 23.5 °F 28.0 °F 89% 29.60 in 2.5 mi North 8.1 mph - 0.01 in Snow Light Snow
4:04 AM 30.2 °F 23.4 °F 28.4 °F 93% 29.61 in 3.0 mi North 6.9 mph - 0.00 in Snow Light Snow
4:14 AM 30.2 °F 23.4 °F 28.4 °F 93% 29.61 in 5.0 mi North 6.9 mph - 0.00 in Snow Light Snow
4:53 AM 30.9 °F 22.8 °F 26.1 °F 82% 29.62 in 10.0 mi North 9.2 mph - 0.00 in   Overcast
5:53 AM 30.9 °F 22.8 °F 25.0 °F 79% 29.65 in 10.0 mi North 9.2 mph - N/A   Overcast
6:53 AM 30.0 °F 21.7 °F 25.0 °F 82% 29.68 in 10.0 mi North 9.2 mph - N/A   Overcast
7:53 AM 30.9 °F 25.2 °F 23.0 °F 72% 29.71 in 9.0 mi North 5.8 mph - 0.00 in Snow Light Snow
8:53 AM 30.0 °F 26.5 °F 24.1 °F 79% 29.74 in 10.0 mi North 3.5 mph - 0.00 in   Overcast
9:53 AM 28.9 °F - 25.0 °F 85% 29.78 in 10.0 mi Calm Calm - N/A   Overcast
10:53 AM 30.0 °F 26.5 °F 27.0 °F 88% 29.82 in 10.0 mi ENE 3.5 mph - N/A   Overcast
11:53 AM 30.9 °F - 28.0 °F 89% 29.84 in 10.0 mi Calm Calm - N/A   Overcast
12:53 PM 28.9 °F 25.2 °F 27.0 °F 92% 29.84 in 10.0 mi East 3.5 mph - N/A   Clear
1:53 PM 30.0 °F 25.2 °F 27.0 °F 88% 29.85 in 10.0 mi East 4.6 mph - N/A   Clear
2:53 PM 30.0 °F 24.1 °F 25.0 °F 82% 29.84 in 10.0 mi East 5.8 mph - N/A   Mostly Cloudy
3:53 PM 30.0 °F - 24.1 °F 79% 29.84 in 10.0 mi Calm Calm - N/A   Overcast
4:53 PM 30.9 °F 24.3 °F 21.9 °F 69% 29.84 in 10.0 mi North 6.9 mph - N/A   Overcast
5:53 PM 32.0 °F 27.5 °F 21.9 °F 66% 29.87 in 10.0 mi Variable 4.6 mph - N/A   Overcast
6:53 PM 30.9 °F 25.2 °F 21.9 °F 69% 29.87 in 10.0 mi Variable 5.8 mph - N/A   Mostly Cloudy
7:53 PM 30.0 °F 21.1 °F 21.0 °F 69% 29.83 in 10.0 mi NNW 10.4 mph - N/A   Scattered Clouds
8:53 PM 28.9 °F 17.7 °F 19.9 °F 69% 29.83 in 10.0 mi North 15.0 mph - N/A   Overcast
9:53 PM 28.9 °F 21.1 °F 19.9 °F 69% 29.84 in 10.0 mi North 8.1 mph - N/A   Overcast
10:53 PM 28.9 °F 20.4 °F 19.9 °F 69% 29.83 in 10.0 mi North 9.2 mph - N/A   Overcast
11:53 PM 27.0 °F 16.1 °F 19.0 °F 72% 29.82 in 10.0 mi North 12.7 mph - N/A   Overcast